Location: Borbetomagus
(49.6328°N, 8.3592°E)
Time: 20:52:38
(UTC+00:00)

Cosmos 2181 Rocket - Pass Details

Date: 19 May 2025
Orbit: 952 x 1013 km, 82.9° (Epoch: 15 June)

Event Time Altitude Azimuth Distance (km) Brightness Sun altitude
Exits shadow 20:58:42 15° 170° (S) 2,387 5.5 -13.4°
Maximum altitude 21:03:55 62° 93° (E) 1,106 4.1 -13.9°
Drops below altitude 10° 21:10:12 10° 15° (NNE) 2,783 7.0 -14.4°
Sets 21:12:46 0° 12° (NNE) 3,744 7.8 -14.6°
